DELTA 1 DEB, 10716

Orbit data source: Space-Track

DELTA 1 DEB, 10716 is space debris in SSO originally from a launch on Thu, 29 Jul 1976 UTC launched from the Air Force Western Test Range (AFWTR). Debris objects in space refer to the collection of defunct objects orbiting the Earth. Examples of debris include non-operational satellites, rocket bodies, and fragments generated from explosions, collisions, or faulty payload assembly.

Loading next visibility...
Identifier
10716, 1976-077AM
Orbit
SSO
Country
Flag of USUS
Related business
Manufacturer
Unknown
Mission
Spacecraft
Bus & Motor
Unknown
Mass
Unknown
Launch date (UTC)
1976-07-29 (49 years ago)
Launch vehicle
Unknown
Launch site
Air Force Western Test Range (AFWTR)
Object type
Payload
Rocket body
Debris
Shape & HBR
Unknown shape, 0.1 m
Radar Cross Section
Small (<0.1 m²)

Expand to show TLE details & history
Last TLE update: 22 hours ago

TLE from 22 hours ago
0 DELTA 1 DEB
1 10716U 76077AM  25350.10125854  .00001111  00000-0  49180-2 0  9991
2 10716 102.7465 164.2999 0093007 101.7859  20.1927 12.81617091253335
Epoch: 2025-12-16T02:25Z
TLE epoch observation values (Epoch: 2025-12-16T02:25:48.737Z)
Latitude
55.58219°
Longitude
-117.96601°
Altitude
1,276.717 km
Speed
7.254 km/s
True Right ascension
00h 13m 54s
True Declination
55° 25' 57"
Sunlit
Object was in daylight at epoch
Visualization orbit readout
Latitude
Unknown
Longitude
Unknown
Altitude
Unknown
Speed
Unknown
Apparent Right ascension
Unknown
Apparent Declination
Unknown
Sunlit
N/A
Visualization observer readout
Local Sidereal Time
23:33:42
Azimuth
Unknown
Elevation
Unknown
Doppler factor
Unknown
Orbital elements
Apogee altitude
1,404.257 km
Perigee altitude
1,260.827 km
Semi-major axis
7,710.679 km
Eccentricity
0.0093
Inclination
102.7465°
RAAN
164.2999°
Arg. of periapsis
101.7859°
True anomaly
20.56464°
Mean anomaly
20.1927°
Eccentric anomaly
20.37826°
Mean motion
3.20556 °/min
Orbital period
112.3 mins
BSTAR
0.004918
Loading maneuver chart data...
Computing Atmospheric mass density...
Loading historical data...
Loading historical data...
Loading historical data...
Loading historical data...
Loading historical data...
Loading historical data...
Loading historical data...

Documentation

Showing up to 5 results
|